FW4672 Weather Reports


Display with metric or nautical units.
time (UTC)temp
F
wind
direction
speed
MPH
gust
MPH
rain 1hr
in
rain 24hr
in
rain mn
in
humidity
%
barometer
mb
20260901070325 68 67 0.0 0.0 0.00 0.00 0.00 89 1033.1
20260901065425 68 67 0.0 0.0 0.00 0.00 0.00 89 1033.1
20260901064524 68 67 0.0 0.0 0.00 0.00 0.00 89 1033.1
20260901063624 68 67 0.0 0.0 0.00 0.00 0.00 89 1033.0
20260901062628 69 292 0.0 0.0 0.00 0.00 0.00 90 1033.0
20260901061626 69 292 0.0 0.0 0.00 0.00 0.00 90 1032.9
20260901060725 69 292 0.0 0.0 0.00 0.00 0.00 90 1032.9
20260901054725 69 180 0.0 0.0 0.00 0.00 0.00 90 1033.0
20260901053723 69 180 0.0 0.0 0.00 0.00 0.00 90 1032.9
20260901052726 68 315 0.0 0.0 0.00 0.00 0.00 90 1032.9
20260901051725 68 315 0.0 0.0 0.00 0.00 0.00 90 1032.6
20260901050725 68 315 0.0 0.0 0.00 0.00 0.00 88 1032.8
20260901045726 68 157 0.0 0.0 0.00 0.00 0.00 89 1032.8
20260901044726 68 157 0.0 0.0 0.00 0.00 0.00 89 1032.8
20260901043725 68 157 0.0 0.0 0.00 0.00 0.00 88 1032.8
20260901042723 68 157 0.0 0.0 0.00 0.00 0.00 88 1032.6
20260901041724 69 157 0.0 0.0 0.00 0.00 0.00 88 1032.7
20260901040725 69 157 0.0 0.0 0.00 0.00 0.00 88 1032.6
20260901035724 69 157 0.0 0.0 0.00 0.00 0.00 87 1032.4
20260901034823 69 157 0.0 0.0 0.00 0.00 0.00 87 1032.4
20260901033826 69 157 0.0 0.0 0.00 0.00 0.00 86 1032.2
20260901032826 69 160 0.0 0.0 0.00 0.00 0.00 85 1032.2
20260901031826 69 315 0.0 0.0 0.00 0.00 0.00 85 1032.0
20260901030923 69 315 0.0 0.0 0.00 0.00 0.00 84 1031.8
20260901030023 69 337 0.0 0.0 0.00 0.00 0.00 83 1031.8
20260901025025 70 315 0.0 0.0 0.00 0.00 0.00 83 1031.6
20260901023124 70 315 0.0 0.0 0.00 0.00 0.00 81 1031.3
20260901022223 71 337 0.0 0.0 0.00 0.00 0.00 81 1031.2
20260901021224 71 337 0.0 0.0 0.00 0.00 0.00 80 1031.2
20260901015226 73 335 0.0 0.0 0.00 0.00 0.00 79 1031.0
20260901014224 74 315 0.0 0.0 0.00 0.00 0.00 77 1030.9
20260901013226 74 331 0.0 0.0 0.00 0.00 0.00 76 1030.8
20260901012226 75 335 0.0 0.0 0.00 0.00 0.00 77 1030.8
20260901011324 75 330 0.0 0.0 0.00 0.00 0.00 75 1030.9
20260901005425 76 333 0.0 0.0 0.00 0.00 0.00 74 1031.1
20260901004424 76 335 0.0 0.0 0.00 0.00 0.00 74 1031.2
20260901003427 76 331 0.0 0.0 0.00 0.00 0.00 74 1031.2
20260901002525 76 328 0.0 0.0 0.00 0.00 0.00 75 1031.0
20260901001525 76 336 0.0 0.0 0.00 0.00 0.00 75 1031.2
20260831235526 77 337 0.0 0.0 0.00 0.00 0.00 75 1031.2
20260831234527 76 332 0.0 0.0 0.00 0.00 0.00 76 1031.3
20260831233526 76 331 0.0 0.0 0.00 0.00 0.00 77 1031.5
20260831232525 76 336 0.0 0.0 0.00 0.00 0.00 77 1031.3
20260831231624 76 324 0.0 0.0 0.00 0.00 0.00 76 1031.3
20260831230723 77 336 0.0 0.0 0.00 0.00 0.00 76 1031.4
20260831225726 77 329 0.0 0.0 0.00 0.00 0.00 76 1031.5
20260831224724 77 335 0.0 0.0 0.00 0.00 0.00 76 1031.5
20260831223823 77 335 0.0 0.0 0.00 0.00 0.00 76 1031.5
20260831222826 77 334 0.0 0.0 0.00 0.00 0.00 75 1031.8
20260831220824 77 334 0.0 0.0 0.00 0.00 0.00 75 1031.9
20260831215824 78 337 0.0 0.0 0.00 0.00 0.00 75 1032.0
20260831214825 78 329 0.0 0.0 0.00 0.00 0.00 74 1032.0
20260831213823 78 332 0.0 0.0 0.00 0.00 0.00 76 1031.8
20260831212824 78 335 0.0 0.0 0.00 0.00 0.00 75 1031.9
20260831211826 78 326 0.0 0.0 0.00 0.00 0.00 76 1032.0
20260831205924 78 336 0.0 0.0 0.00 0.00 0.00 76 1032.2
20260831204926 78 326 0.0 0.0 0.00 0.00 0.00 76 1032.3
20260831203924 78 334 0.0 0.0 0.00 0.00 0.00 77 1032.4
20260831202925 78 335 0.0 0.0 0.00 0.00 0.00 79 1032.4
20260831202023 78 337 0.0 0.0 0.00 0.00 0.00 79 1032.5
20260831201024 78 335 0.0 0.0 0.00 0.00 0.00 78 1032.5
20260831200024 78 328 0.0 0.0 0.00 0.00 0.00 79 1032.5
20260831195025 78 332 0.0 0.0 0.00 0.00 0.00 78 1032.3
20260831194026 79 336 0.0 0.0 0.00 0.00 0.00 76 1032.6
20260831193123 79 335 0.0 0.0 0.00 0.00 0.00 76 1032.5
20260831192126 79 337 0.0 0.0 0.00 0.00 0.00 76 1032.7
20260831191126 79 333 0.0 0.0 0.00 0.00 0.00 74 1032.8
20260831190123 78 311 0.0 0.0 0.00 0.00 0.00 76 1032.6
20260831185125 78 336 0.0 0.0 0.00 0.00 0.00 75 1032.8
20260831184126 77 335 0.0 0.0 0.00 0.00 0.00 75 1032.7
20260831182224 76 337 0.0 0.0 0.00 0.00 0.00 75 1032.7
20260831180225 75 317 0.0 0.0 0.00 0.00 0.00 76 1032.8
20260831174324 75 337 0.0 0.0 0.00 0.00 0.00 77 1032.5
20260831172426 74 225 0.0 0.0 0.00 0.00 0.00 78 1032.6
20260831171525 74 292 0.0 0.0 0.00 0.00 0.00 79 1032.4
20260831170623 74 335 0.0 0.0 0.00 0.00 0.00 79 1032.4
20260831165722 74 313 0.0 0.0 0.00 0.00 0.00 80 1032.5
20260831164723 73 332 0.0 0.0 0.00 0.00 0.00 80 1032.4
20260831162823 73 249 0.0 0.0 0.00 0.00 0.00 79 1032.4
20260831161825 73 335 0.0 0.0 0.00 0.00 0.00 80 1032.4
20260831160825 72 220 0.0 0.0 0.00 0.00 0.00 81 1032.4
20260831154923 72 181 0.0 0.0 0.00 0.00 0.00 81 1032.2
20260831153925 72 225 0.0 0.0 0.00 0.00 0.00 81 1032.3
20260831152924 72 337 0.0 0.0 0.00 0.00 0.00 81 1032.2
20260831151924 72 180 0.0 0.0 0.00 0.00 0.00 82 1032.1
20260831145925 71 330 0.0 0.0 0.00 0.00 0.00 85 1032.2
20260831145023 70 180 0.0 0.0 0.00 0.00 0.00 84 1031.9
20260831144024 70 180 0.0 0.0 0.00 0.00 0.00 85 1032.0
20260831143122 70 180 0.0 0.0 0.00 0.00 0.00 85 1032.0
20260831142125 69 180 0.0 0.0 0.00 0.00 0.00 85 1031.8
20260831141124 69 180 0.0 0.0 0.00 0.00 0.00 86 1031.7
20260831135124 69 180 0.0 0.0 0.00 0.00 0.00 86 1031.5
20260831134222 69 180 0.0 0.0 0.00 0.00 0.00 86 1031.2
20260831133225 69 180 0.0 0.0 0.00 0.00 0.00 85 1031.2
20260831132323 69 180 0.0 0.0 0.00 0.00 0.00 85 1031.1
20260831131324 69 180 0.0 0.0 0.00 0.00 0.00 85 1031.1
20260831130324 69 180 0.0 0.0 0.00 0.00 0.00 84 1031.0
20260831125325 70 180 0.0 0.0 0.00 0.00 0.00 84 1031.0
20260831123323 70 180 0.0 0.0 0.00 0.00 0.00 84 1031.0
20260831122324 70 180 0.0 0.0 0.00 0.00 0.00 85 1030.9
20260831121323 70 180 0.0 0.0 0.00 0.00 0.00 85 1030.9
20260831120324 70 180 0.0 0.0 0.00 0.00 0.00 85 1030.9
20260831114323 70 180 0.0 0.0 0.00 0.00 0.00 85 1030.9
20260831112325 70 180 0.0 0.0 0.00 0.00 0.00 85 1031.0
20260831111327 70 180 0.0 0.0 0.00 0.00 0.00 85 1031.0
20260831105324 70 180 0.0 0.0 0.00 0.00 0.00 86 1030.9
20260831103325 70 180 0.0 0.0 0.00 0.00 0.00 86 1031.1
20260831102422 70 180 0.0 0.0 0.00 0.00 0.00 86 1031.0
20260831101425 70 180 0.0 0.0 0.00 0.00 0.00 86 1031.0
20260831100523 70 180 0.0 0.0 0.00 0.00 0.00 87 1031.1
20260831095525 70 180 0.0 0.0 0.00 0.00 0.00 87 1031.0
20260831093625 70 180 0.0 0.0 0.00 0.00 0.00 88 1031.0
20260831092723 70 180 0.0 0.0 0.00 0.00 0.00 88 1031.1
20260831090823 70 180 0.0 0.0 0.00 0.00 0.00 89 1031.1
20260831085825 70 189 0.0 0.0 0.00 0.00 0.00 89 1031.0
20260831084922 70 180 0.0 0.0 0.00 0.00 0.00 88 1031.2
20260831082925 70 180 0.0 0.0 0.00 0.00 0.00 90 1031.0
20260831081926 70 180 0.0 0.0 0.00 0.00 0.00 90 1031.2
20260831081024 70 180 0.0 0.0 0.00 0.00 0.00 90 1031.2
20260831080124 70 180 0.0 0.0 0.00 0.00 0.00 91 1031.2
20260831074223 70 180 0.0 0.0 0.00 0.00 0.00 91 1031.3
20260831073226 70 180 0.0 0.0 0.00 0.00 0.00 90 1031.2
20260831072323 70 180 0.0 0.0 0.00 0.00 0.00 91 1031.2